KB3UQE Weather Reports


time (UTC)temp
C
wind
direction
speed
KPH
gust
KPH
rain 1hr
cm
rain 24hr
cm
rain mn
cm
humidity
%
barometer
mb
20260504225655 22 0.0 0.0 0.00 0.00 0.00 34 1006.0
20260504225509 22 0.0 0.0 0.00 0.00 0.00 34 1006.0
20260504223255 22 0.0 0.0 0.00 0.00 0.00 34 1005.8
20260504223109 22 0.0 0.0 0.00 0.00 0.00 34 1005.8
20260504220254 23 0.0 0.0 0.00 0.00 0.00 33 1005.8
20260504220108 23 0.0 0.0 0.00 0.00 0.00 33 1005.8
20260504213254 24 0.0 0.0 0.00 0.00 0.00 33 1005.9
20260504213108 24 0.0 0.0 0.00 0.00 0.00 33 1005.9
20260504210254 25 0.0 0.0 0.00 0.00 0.00 33 1005.9
20260504210108 25 0.0 0.0 0.00 0.00 0.00 33 1005.9
20260504203553 25 0.0 0.0 0.00 0.00 0.00 33 1006.1
20260504203108 25 0.0 0.0 0.00 0.00 0.00 33 1006.1
20260504200553 25 0.0 0.0 0.00 0.00 0.00 33 1007.3
20260504200108 25 0.0 0.0 0.00 0.00 0.00 33 1007.3
20260504193552 28 0.0 0.0 0.00 0.00 0.00 31 1007.6
20260504193107 28 0.0 0.0 0.00 0.00 0.00 31 1007.6
20260504191152 31 0.0 0.0 0.00 0.00 0.00 31 1007.7
20260504190706 31 0.0 0.0 0.00 0.00 0.00 31 1007.7
20260504184752 36 0.0 0.0 0.00 0.00 0.00 30 1008.0
20260504184306 36 0.0 0.0 0.00 0.00 0.00 30 1008.0
20260504182351 38 0.0 0.0 0.00 0.00 0.00 29 1007.8
20260504181906 38 0.0 0.0 0.00 0.00 0.00 29 1007.8
20260504175951 40 0.0 0.0 0.00 0.00 0.00 28 1008.3
20260504175506 40 0.0 0.0 0.00 0.00 0.00 28 1008.3
20260504173551 41 0.0 0.0 0.00 0.00 0.00 28 1008.5
20260504173105 41 0.0 0.0 0.00 0.00 0.00 28 1008.5
20260504171151 42 0.0 0.0 0.00 0.00 0.00 27 1008.7
20260504170705 42 0.0 0.0 0.00 0.00 0.00 27 1008.7
20260504150704 39 0.0 0.0 0.00 0.00 0.00 31 1009.0
20260504130702 31 0.0 0.0 0.00 0.00 0.00 32 1009.0
20260504110701 6 0.0 0.0 0.00 0.00 0.00 33 1011.3
20260504081859 5 0.0 0.0 0.00 0.00 0.00 32 1011.8
20260504043823 5 0.0 0.0 0.00 0.00 0.00 31 1011.9
20260504040822 5 0.0 0.0 0.00 0.00 0.00 30 1011.6
20260504033822 6 0.0 0.0 0.00 0.00 0.00 30 1011.3
20260504030822 6 0.0 0.0 0.00 0.00 0.00 30 1011.1
20260504024422 7 0.0 0.0 0.00 0.00 0.00 30 1011.1
20260504022023 7 0.0 0.0 0.00 0.00 0.00 30 1011.0
20260504015621 8 0.0 0.0 0.00 0.00 0.00 30 1011.0
20260504013220 8 0.0 0.0 0.00 0.00 0.00 29 1010.9
20260504010820 10 0.0 0.0 0.00 0.00 0.00 29 1010.6
20260504003820 11 0.0 0.0 0.00 0.00 0.00 29 1010.3
20260504000819 13 0.0 0.0 0.00 0.00 0.00 29 1009.9
20260503233819 15 0.0 0.0 0.00 0.00 0.00 28 1009.3